bandar bola
poker88
poker88

Jackpot

Texas Poker Multi Jackpot System

Kini Telah hadir Jackpot SUPER ROYAL FLUSH

Kini Telah hadir Jackpot 2000 (khusus table VIP keatas).

Ikutilah global jackpot yang tersedia di system kami, dengan system jackpot terbaru dan pertama di indonesia, anda dapat membeli jackpot dengan harga 100 rupiah saja dan menangkan hadiahnya hingga puluhan juta rupiah.

Jackpot bukanlah suatu keharusan untuk dibeli, namun kami memberikan suatu fitur tambahan untuk member tercinta dari www.toppoker789.org.

Terdapat tiga pilihan harga jackpot yang bisa anda beli yaitu :100,500,1000 dan 2000(khusus table VIP Keatas) rupiah.

Hadiah dari Multi jackpot system www.toppoker789.org

  1. full house x 10 harga jackpot yang anda beli.
      (contoh:anda membeli 1000 maka:1000 X10 = 10.000)
  2. four of kind x 250 harga jackpot yang anda beli
      (contoh:anda membeli 1000 maka:1000 X250 = 250.000)
  3. Straight flush x 1200
      (contoh:anda membeli 1000 maka:1000 X1200 = 1.200.000)
  4. Royal flush x 10000 harga jackpot yang anda beli
      (contoh:anda membeli 1000 maka:1000 X10000 = 10.000.000)
  5. SUPER ROYAL FLUSH x 30000 harga jackpot yang anda beli
      (contoh:anda membeli 1000 maka:1000 X30000 = 30.000.000)

Kondisi kartu

  1. full house adalah kondisi kartu dimana kartu anda dan kartu tengah dengan total 7 kartu bisa mendapatkan nilai 5 kartu dengan kombinasi 1 tris(three of kind) dan 1 pair, contoh 3 kartu 10 dan 2 kartu 5
  2. Four of kind adalah kondisi kartu dimana kartu anda dan kartu tengah dengan total 7 kartu bisa mendapatkan nilai 5 kartu dengan kombinasi 4 kartu yang sama jumlah dan 1 kartu apapun juga contoh anda mendapatkan 4 buah kartu angka 3 dan 1 kartu apapun.
  3. Staright flush adalah kondisi kartu dimana kartu anda dan kartu tengah dengan total 7 kartu bisa mendapatkan nilai 5 kartu dengan kombinasi seri / staright dengan kembang yang sama contoh : urutan kartu dari angka 5, 6, 7, 8 , 9 10 dengan kembang yg sama misalnya as hati
  4. Royal flush adalah kondisi kartu dimana kartu anda dan kartu tengah dengan total 7 kartu bisa mendapatkan nilai 5 kartu dengan kombinasi seri / staright dengan kembang yang sama tetapi kartu tersebut haruslah dimulai dari 10. contoh 10, Queen, Jack, King dan aces dengan kembang yang sama
  5. Super Royal flush adalah kondisi kartu dimana Kedua kartu anda digabung dengan 3 kartu pertama meja haruslah royal flush. contoh kartu anda 10,Queen kembang sama dan 3 kartu pertama meja adalah Jack, King dan aces dengan kembang yang sama

Demikian adalah penjelasan dari Multi Jackpot www.toppoker789.org terima kasih dan selamat bermain salam hoki dari kami

Texas Poker Jackpot Winner

TOP SUPER ROYAL FLUSH
No.TanggalNamaPriceWin
119/06 22:51XK4MI2Super Royal flush3,000,000
219/06 22:24WINNER888Super Royal flush15,000,000
319/06 22:05F8A6BAF1Super Royal flush6,000,000
419/06 19:56ONANI026Super Royal flush6,000,000
519/06 19:21TUDDINSuper Royal flush6,000,000
TOP ROYAL FLUSH
No.TanggalNamaPriceWin
120/06 07:10VEWTLXVH5ZRoyal flush5,000,000
220/06 07:02JUAN17Royal flush10,000,000
320/06 06:41AZALIA09Royal flush20,000,000
420/06 06:38HOANGTATQRoyal flush2,000,000
520/06 06:30C0F76636Royal flush2,000,000
TOP STRAIGHT FLUSH
No.TanggalNamaPriceWin
120/06 07:16AEIOU1945Straight Flush120,000
220/06 07:13JHONMILANStraight Flush600,000
320/06 07:11AYG47VOS4OStraight Flush1,200,000
420/06 07:10BACUL23Straight Flush120,000
520/06 07:07MIZUNO29Straight Flush1,200,000
LATEST JACKPOT
No.TanggalNamaPriceWin
120/06 07:17FR341984Full House5,000
220/06 07:17ATALAH13Full House5,000
320/06 07:17ONIXSFull House10,000
420/06 07:16ENCHOSPEEDFull House2,000
520/06 07:16DENGXIAO77Full House2,000
620/06 07:16KRENN007Full House5,000
720/06 07:16COCCOK22Full House2,000
820/06 07:16B15WPKBE1GFull House5,000
920/06 07:16GODSONZZFull House5,000
1020/06 07:16B40UNG770Full House5,000
1120/06 07:16ACONG523Full House10,000
1220/06 07:16SINAPGUNFull House5,000
1320/06 07:16ONE_P3LORFull House10,000
1420/06 07:16BARMO29Full House10,000
1520/06 07:16UY4ROL3XFull House5,000
1620/06 07:16ASEB77Full House5,000
1720/06 07:16G1XUPNFBM0Full House2,000
1820/06 07:16IDNGPAS252Full House2,000
1920/06 07:16SUSIE88Full House2,000
2020/06 07:16MASIHVWFull House2,000
2120/06 07:16AQSHA11Full House5,000
2220/06 07:16FAN12454Full House5,000
2320/06 07:16CIMITA23Full House2,000
2420/06 07:16IGOJRFull House1,000
2520/06 07:16SMITH889Full House5,000
2620/06 07:16GGONEFull House10,000
2720/06 07:16REZKY_9999Full House10,000
2820/06 07:16SCORE705Full House5,000
2920/06 07:16ROYCHIYYSSFull House10,000
3020/06 07:16NGAJIRANFull House1,000
3120/06 07:16TONO97Full House10,000
3220/06 07:16AEIOU1945Straight Flush120,000
3320/06 07:16VU282Full House10,000
3420/06 07:15IAMSEPTIANFull House1,000
3520/06 07:15SIKOSODOFull House10,000
3620/06 07:15LURUSPATIFull House5,000
3720/06 07:15MGSREBORNFull House5,000
3820/06 07:15TUPANKJRFull House2,000
3920/06 07:15DEWAFIN88Four Of A Kind50,000
4020/06 07:15PV4M984CIXFull House5,000
4120/06 07:15PORNPROS88Full House5,000
4220/06 07:15KUMILAN8Full House1,000
4320/06 07:15BE33ANFull House2,000
4420/06 07:15CECEEP88Full House5,000
4520/06 07:15F4EE584CFull House20,000
4620/06 07:15TEMPEBALAPFour Of A Kind125,000
4720/06 07:15RASYIT01Full House1,000
4820/06 07:15RAWN88Full House10,000
4920/06 07:15KERUPUKKSFull House2,000
5020/06 07:15SINTHA23Four Of A Kind250,000

Domino Multi Jackpot System

Ikutilah global jackpot yang tersedia di system kami, dengan system jackpot terbaru dan pertama di indonesia, anda dapat membeli jackpot dengan harga 100 rupiah saja dan menangkan hadiahnya hingga puluhan juta rupiah.

Jackpot bukanlah suatu keharusan untuk dibeli, namun kami memberikan suatu fitur tambahan untuk member tercinta dari www.toppoker789.org.

Terdapat tiga pilihan harga jackpot yang bisa anda beli yaitu :100,500 dan 1000 rupiah.

Hadiah dari Multi jackpot system www.toppoker789.org

  1. Murni Kecil x 50 harga jackpot yang anda beli.
      (contoh:anda membeli 1000 maka:1000 X 50 = 50.000)
  2. Murni Besar x 50 harga jackpot yang anda beli
      (contoh:anda membeli 1000 maka:1000 X 50 = 50.000)
  3. BALAK x 100 harga jackpot yang anda beli
      (contoh:anda membeli 1000 maka:1000 X 100 = 100.000)
  4. ENAM DEWA x 6666 harga jackpot yang anda beli
      (contoh:anda membeli 1000 maka:1000 X 6666 = 6.666.000)

Demikian adalah penjelasan dari Multi Jackpot www.toppoker789.org terima kasih dan selamat bermain salam hoki dari kami

Domino Jackpot Winner

TOP ENAM DEWA
No.TanggalNamaPriceWin
120/06 03:50KQWGWSJYRXmurni enam3,333,000
220/06 02:14DINIWHYmurni enam666,600
320/06 00:15EVRIT01murni enam3,333,000
419/06 23:47SOLONG85murni enam3,333,000
519/06 22:17MF92murni enam666,600
TOP BALAK
No.TanggalNamaPriceWin
120/06 07:05A56CB7C1balak10,000
220/06 06:55GLG777balak100,000
320/06 06:55NIMEN456balak100,000
420/06 06:54XDIKAbalak50,000
520/06 06:51DODI891balak100,000
LATEST JACKPOT
No.TanggalNamaPriceWin
120/06 07:14CB77LUSMASmurni besar25,000
220/06 07:11GEGER057murni kecil50,000
320/06 07:10MF92lucky9910,000
420/06 07:08AERTONSENAmurni besar25,000
520/06 07:05A56CB7C1balak10,000
620/06 07:04MASDON90lucky9950,000
720/06 07:04JINKAYAMAmurni kecil50,000
820/06 07:03JOE1689murni kecil5,000
920/06 07:01ROSSMARRYmurni kecil50,000
1020/06 06:59XDIKAmurni kecil25,000
1120/06 06:56LAWAZ01murni besar50,000
1220/06 06:56ELMANAFIE1murni besar5,000
1320/06 06:55GLG777balak100,000
1420/06 06:55NIMEN456balak100,000
1520/06 06:54JHOKER41lucky9925,000
1620/06 06:54XDIKAbalak50,000
1720/06 06:53ITILXXmurni kecil25,000
1820/06 06:52ANJAS6666murni besar50,000
1920/06 06:52NIMEN456murni kecil50,000
2020/06 06:51WIJAYAOO7murni besar25,000
2120/06 06:51LOVE_MUmurni kecil50,000
2220/06 06:51DODI891balak100,000
2320/06 06:50THETOPmurni kecil25,000
2420/06 06:50NEDI1000murni besar50,000
2520/06 06:47MARYANTO70balak100,000
2620/06 06:47FAISALAJAHbalak10,000
2720/06 06:46RAVINmurni besar50,000
2820/06 06:44PENEGAK69murni besar50,000
2920/06 06:44C899murni kecil50,000
3020/06 06:44BYYA125murni besar5,000
3120/06 06:44ZAYN02murni besar50,000
3220/06 06:41AHYAN66balak50,000
3320/06 06:40ANJAS6666lucky9925,000
3420/06 06:40UUTCANTIKmurni kecil5,000
3520/06 06:40WANDI_TANlucky9950,000
3620/06 06:36C899balak100,000
3720/06 06:36GILLANG001murni besar25,000
3820/06 06:35PUNGUTT6lucky9910,000
3920/06 06:35THETOPmurni besar25,000
4020/06 06:34NOT63balak100,000
4120/06 06:33ASEPDOLLARmurni besar50,000
4220/06 06:32JHONJONYmurni kecil50,000
4320/06 06:31BA611murni kecil25,000
4420/06 06:31DWIAN77lucky9925,000
4520/06 06:31IHZARY21murni kecil50,000
4620/06 06:31GBLUESmurni besar50,000
4720/06 06:30AGUSSYAMSUmurni kecil25,000
4820/06 06:29SJPOKER035murni besar5,000
4920/06 06:27CLEON123balak100,000
5020/06 06:27AGUSSYAMSUbalak50,000

Ceme Multi Jackpot System

Jackpot dilihat dari gabungan kartu pemain dengan kartu bandar. Bandar harus membeli jackpot sebanyak jumlah player yang sedang duduk. Sebagai contoh bila terdapat 3 pemain duduk bermain, dan bandar memutuskan untuk membeli jackpot Rp 1.000, maka pada periode tersebut bandar akan membeli jackpot sebanyak 3xRp1.000 = Rp3.000.

Jackpot bukanlah suatu keharusan untuk dibeli, namun kami memberikan suatu fitur tambahan untuk member tercinta dari www.toppoker789.org.

Terdapat tiga pilihan harga jackpot yang bisa anda beli yaitu :100,500 dan 1000 rupiah.

Hadiah dari Multi jackpot system www.toppoker789.org

  1. Murni Kecil x 50 harga jackpot yang anda beli.
      (contoh:anda membeli 1000 maka:1000 X 50 = 50.000)
  2. Murni Besar x 50 harga jackpot yang anda beli
      (contoh:anda membeli 1000 maka:1000 X 50 = 50.000)
  3. BALAK x 200 harga jackpot yang anda beli
      (contoh:anda membeli 1000 maka:1000 X 200 = 200.000)
  4. ENAM DEWA x 6666 harga jackpot yang anda beli
      (contoh:anda membeli 1000 maka:1000 X 6666 = 6.666.000)

Demikian adalah penjelasan dari Multi Jackpot www.toppoker789.org terima kasih dan selamat bermain salam hoki dari kami

Ceme Jackpot Winner

TOP ENAM DEWA
No.TanggalNamaPriceWin
120/06 06:59PUNKMUZKmurni enam3,333,000
220/06 06:32BILLZKYmurni enam6,666,000
320/06 06:32REZA219murni enam3,333,000
420/06 06:22EXLIQRQCNTmurni enam666,600
520/06 05:24BP887100murni enam666,600
TOP BALAK
No.TanggalNamaPriceWin
120/06 07:14HAKASIMA99balak20,000
220/06 07:13NAIB4HObalak200,000
320/06 07:12UKANGESbalak200,000
420/06 07:09BP887100balak20,000
520/06 07:09DENIBLACKbalak100,000
LATEST JACKPOT
No.TanggalNamaPriceWin
120/06 07:17YD50TO7QTBmurni besar5,000
220/06 07:17TKS2703murni kecil50,000
320/06 07:17DX82IO69ZBmurni besar50,000
420/06 07:17MN1Y471H6Rmurni besar5,000
520/06 07:17AKBAR_08murni kecil5,000
620/06 07:16NADINEFmurni besar5,000
720/06 07:16BTL123murni kecil50,000
820/06 07:16MLEKEXmurni kecil50,000
920/06 07:16ZALANLURZZmurni kecil50,000
1020/06 07:16GUNAK99murni kecil50,000
1120/06 07:16GUNAK99murni kecil50,000
1220/06 07:15OJANRT08murni kecil50,000
1320/06 07:15DW1029murni kecil50,000
1420/06 07:15VLWM585K03murni kecil25,000
1520/06 07:15G46EKJSAZTmurni besar50,000
1620/06 07:15MYTEXmurni besar25,000
1720/06 07:15KZ91murni kecil50,000
1820/06 07:15KZ91murni kecil50,000
1920/06 07:15NUKU_MARUmurni kecil5,000
2020/06 07:14YADI152murni kecil50,000
2120/06 07:14BASE6RHOOFmurni kecil50,000
2220/06 07:14TEMPIK77murni kecil25,000
2320/06 07:14BOSRAKA99murni besar25,000
2420/06 07:14SITOGAmurni besar50,000
2520/06 07:14TREDMIL902murni besar5,000
2620/06 07:14OQ7ZIGZVW6murni besar5,000
2720/06 07:14HAKASIMA99balak20,000
2820/06 07:13HAKIBAT88murni kecil25,000
2920/06 07:13LEXIS_murni kecil5,000
3020/06 07:13LEKBOIM99murni besar25,000
3120/06 07:13OEBAN007murni kecil50,000
3220/06 07:13OJANRT08murni kecil50,000
3320/06 07:13NAIB4HObalak200,000
3420/06 07:12NADINEFmurni kecil5,000
3520/06 07:12KZ91murni besar50,000
3620/06 07:12UKANGESbalak200,000
3720/06 07:11DWTOGANJUNIORmurni besar25,000
3820/06 07:11DJAP92murni besar50,000
3920/06 07:11FORTUNA090murni besar25,000
4020/06 07:11NOVA_77murni kecil50,000
4120/06 07:11SIGMA27murni kecil50,000
4220/06 07:11ISKAK_Pmurni kecil5,000
4320/06 07:11MARBUNTRIOmurni besar50,000
4420/06 07:11INDRAGRLTmurni besar5,000
4520/06 07:11MARBUNTRIOmurni besar50,000
4620/06 07:10PUNKMUZKmurni besar25,000
4720/06 07:10BENDOL112murni besar50,000
4820/06 07:10LONTOP09murni kecil50,000
4920/06 07:10PLUS_TRUSmurni kecil50,000
5020/06 07:10ADANG54murni kecil50,000